Weather History for Monett, MO

Change the Weather History Date:

Wednesday, February 6, 2013

  Actual Average (KJLN) Record (KJLN)
Temperature  
Mean Temperature 48 °F 37 °F  
Max Temperature 60 °F 48 °F 69 °F (2009)
Min Temperature 37 °F 27 °F -3 °F (1985)
Degree Days  
Heating Degree Days 16 28  
Month to date heating degree days 169  
Since 1 July heating degree days 2718  
Cooling Degree Days 0 0  
Month to date cooling degree days 0  
Year to date cooling degree days 0  
Moisture  
Dew Point 34 °F    
Average Humidity 60    
Maximum Humidity 81    
Minimum Humidity 39    
Precipitation  
Precipitation 0.00 in 0.07 in 1.06 in (1951)
Month to date precipitation 0.40  
Year to date precipitation 2.43  
Sea Level Pressure  
Sea Level Pressure 30.02 in    
Wind  
Wind Speed 11 mph (ESE)    
Max Wind Speed 18 mph    
Max Gust Speed 23 mph    
Visibility 10 miles    
Events      
T = Trace of Precipitation, MM = Missing Value Source: NWS Daily Summary

Daily Weather History Graph

Daily Weather History Graph

Search for Another Location

Airport:

Trip Planner

Search our weather history database for the weather conditions in past years. The results will help you decide how hot, cold, wet, or windy it might be!

Date:

Astronomy

Feb. 06, 2013 Rise Set
Actual Time 7:13 AM CST 5:47 PM CST
Civil Twilight 6:46 AM CST 6:14 PM CST
Nautical Twilight 6:15 AM CST 6:44 PM CST
Astronomical Twilight 5:45 AM CST 7:15 PM CST
Moon 3:55 AM CST (2/6) 2:08 PM CST (2/6)
Length of Visible Light 11h 27m
Length of Day
10h 33m
Waning Crescent, 17% of the Moon is Illuminated
Feb 6
Waning Crescent
Feb 10
New
Feb 17
First Quarter
Feb 25
Full
Mar 4
Last Quarter

Hourly Weather History & Observations

Time (CST) Temp. Windchill Dew Point Humidity Pressure Visibility Wind Dir Wind Speed Gust Speed Precip Events Conditions
12:15 AM 41.0 °F 35.2 °F 32.0 °F 70% 30.07 in 10.0 mi ENE 9.2 mph - N/A   Clear
12:35 AM 41.0 °F 35.8 °F 32.0 °F 70% 30.07 in 10.0 mi East 8.1 mph - N/A   Clear
12:55 AM 42.8 °F 39.3 °F 32.0 °F 66% 30.07 in 10.0 mi East 5.8 mph - N/A   Clear
1:35 AM 41.0 °F 35.8 °F 30.2 °F 65% 30.08 in 10.0 mi East 8.1 mph - N/A   Clear
1:55 AM 39.2 °F 34.2 °F 30.2 °F 70% 30.08 in 10.0 mi East 6.9 mph - N/A   Clear
2:15 AM 41.0 °F 35.2 °F 30.2 °F 65% 30.07 in 10.0 mi East 9.2 mph - N/A   Clear
2:35 AM 41.0 °F 34.7 °F 30.2 °F 65% 30.07 in 10.0 mi East 10.4 mph - N/A   Clear
2:55 AM 41.0 °F 35.8 °F 30.2 °F 65% 30.07 in 10.0 mi East 8.1 mph - N/A   Clear
3:15 AM 39.2 °F 33.0 °F 30.2 °F 70% 30.07 in 10.0 mi East 9.2 mph - N/A   Clear
4:15 AM 37.4 °F 30.8 °F 30.2 °F 75% 30.07 in 10.0 mi ESE 9.2 mph - N/A   Clear
4:35 AM 37.4 °F 30.3 °F 30.2 °F 75% 30.07 in 10.0 mi ESE 10.4 mph - N/A   Clear
4:55 AM 37.4 °F 30.3 °F 30.2 °F 75% 30.07 in 10.0 mi East 10.4 mph - N/A   Clear
5:15 AM 37.4 °F 30.3 °F 30.2 °F 75% 30.07 in 10.0 mi ESE 10.4 mph - N/A   Clear
5:35 AM 37.4 °F 29.8 °F 32.0 °F 81% 30.07 in 10.0 mi ESE 11.5 mph - N/A   Clear
5:55 AM 37.4 °F 29.8 °F 30.2 °F 75% 30.08 in 10.0 mi ESE 11.5 mph - N/A   Clear
6:15 AM 37.4 °F 30.3 °F 30.2 °F 75% 30.08 in 10.0 mi ESE 10.4 mph - N/A   Clear
6:35 AM 37.4 °F 28.9 °F 30.2 °F 75% 30.09 in 10.0 mi ESE 13.8 mph - N/A   Clear
6:55 AM 37.4 °F 29.8 °F 30.2 °F 75% 30.10 in 10.0 mi SE 11.5 mph 18.4 mph N/A   Clear
7:35 AM 37.4 °F 29.3 °F 30.2 °F 75% 30.11 in 10.0 mi SE 12.7 mph - N/A   Clear
7:55 AM 41.0 °F 33.5 °F 30.2 °F 65% 30.10 in 10.0 mi ESE 13.8 mph - N/A   Clear
8:15 AM 41.0 °F 33.1 °F 30.2 °F 65% 30.10 in 10.0 mi ESE 15.0 mph 21.9 mph N/A   Clear
8:35 AM 41.0 °F 32.8 °F 32.0 °F 70% 30.10 in 10.0 mi ESE 16.1 mph 21.9 mph N/A   Clear
8:55 AM 42.8 °F 34.5 °F 32.0 °F 66% 30.09 in 10.0 mi ESE 18.4 mph 23.0 mph N/A   Clear
9:15 AM 44.6 °F 37.2 °F 32.0 °F 61% 30.09 in 10.0 mi ESE 17.3 mph 20.7 mph N/A   Clear
9:35 AM 46.4 °F 40.1 °F 32.0 °F 57% 30.09 in 10.0 mi SE 15.0 mph 19.6 mph N/A   Clear
9:55 AM 48.2 °F - 32.0 °F 54% 30.08 in 10.0 mi SE 18.4 mph 23.0 mph N/A   Clear
10:15 AM 50.0 °F - 32.0 °F 50% 30.09 in 10.0 mi SE 17.3 mph 20.7 mph N/A   Clear
10:55 AM 53.6 °F - 33.8 °F 47% 30.09 in 10.0 mi SE 12.7 mph 18.4 mph N/A   Clear
11:15 AM 53.6 °F - 33.8 °F 47% 30.08 in 10.0 mi SE 12.7 mph - N/A   Clear
11:35 AM 55.4 °F - 33.8 °F 44% 30.07 in 10.0 mi SE 13.8 mph - N/A   Scattered Clouds
11:55 AM 55.4 °F - 33.8 °F 44% 30.05 in 10.0 mi SE 13.8 mph - N/A   Clear
12:15 PM 55.4 °F - 33.8 °F 44% 30.05 in 10.0 mi SE 12.7 mph 20.7 mph N/A   Clear
12:55 PM 55.4 °F - 35.6 °F 47% 30.03 in 10.0 mi SE 11.5 mph - N/A   Scattered Clouds
1:15 PM 57.2 °F - 35.6 °F 44% 30.02 in 10.0 mi SE 12.7 mph 16.1 mph N/A   Clear
1:35 PM 60.8 °F - 35.6 °F 39% 30.00 in 10.0 mi SE 11.5 mph 17.3 mph N/A   Clear
1:55 PM 59.0 °F - 35.6 °F 42% 29.99 in 10.0 mi SE 15.0 mph 18.4 mph N/A   Clear
2:15 PM 55.4 °F - 33.8 °F 44% 30.00 in 10.0 mi SE 10.4 mph - N/A   Clear
2:35 PM 55.4 °F - 33.8 °F 44% 29.99 in 10.0 mi SE 9.2 mph - N/A   Clear
2:55 PM 55.4 °F - 35.6 °F 47% 29.98 in 10.0 mi East 11.5 mph - N/A   Clear
3:15 PM 55.4 °F - 35.6 °F 47% 29.97 in 10.0 mi ESE 9.2 mph - N/A   Clear
3:35 PM 57.2 °F - 35.6 °F 44% 29.96 in 10.0 mi ESE 10.4 mph - N/A   Clear
3:55 PM 57.2 °F - 37.4 °F 48% 29.96 in 10.0 mi ESE 11.5 mph - N/A   Clear
4:15 PM 55.4 °F - 35.6 °F 47% 29.96 in 10.0 mi ESE 13.8 mph - N/A   Clear
4:35 PM 55.4 °F - 35.6 °F 47% 29.95 in 10.0 mi ESE 12.7 mph - N/A   Clear
4:55 PM 55.4 °F - 37.4 °F 51% 29.95 in 10.0 mi ESE 8.1 mph - N/A   Clear
5:15 PM 55.4 °F - 37.4 °F 51% 29.95 in 10.0 mi SE 11.5 mph - N/A   Clear
5:35 PM 53.6 °F - 37.4 °F 54% 29.95 in 10.0 mi SE 11.5 mph - N/A   Clear
5:55 PM 53.6 °F - 37.4 °F 54% 29.95 in 10.0 mi SE 12.7 mph - N/A   Scattered Clouds
6:15 PM 53.6 °F - 37.4 °F 54% 29.95 in 10.0 mi SE 10.4 mph - N/A   Scattered Clouds
6:35 PM 51.8 °F - 37.4 °F 58% 29.95 in 10.0 mi SE 10.4 mph - N/A   Scattered Clouds
6:55 PM 51.8 °F - 37.4 °F 58% 29.96 in 10.0 mi SE 11.5 mph - N/A   Clear
7:15 PM 51.8 °F - 37.4 °F 58% 29.96 in 10.0 mi SE 11.5 mph 17.3 mph N/A   Clear
7:35 PM 50.0 °F - 37.4 °F 62% 29.95 in 10.0 mi SE 12.7 mph - N/A   Clear
7:55 PM 50.0 °F - 37.4 °F 62% 29.96 in 10.0 mi ESE 10.4 mph - N/A   Clear
8:15 PM 50.0 °F - 35.6 °F 58% 29.95 in 10.0 mi SE 11.5 mph - N/A   Clear
8:35 PM 50.0 °F - 35.6 °F 58% 29.94 in 10.0 mi SE 11.5 mph - N/A   Clear
8:55 PM 50.0 °F - 35.6 °F 58% 29.95 in 10.0 mi SE 13.8 mph - N/A   Scattered Clouds
9:15 PM 50.0 °F - 37.4 °F 62% 29.95 in 10.0 mi SE 13.8 mph 18.4 mph N/A   Scattered Clouds
9:35 PM 48.2 °F - 37.4 °F 66% 29.96 in 10.0 mi SE 12.7 mph - N/A   Clear
9:55 PM 48.2 °F - 37.4 °F 66% 29.96 in 10.0 mi SE 12.7 mph - N/A   Clear
10:15 PM 46.4 °F 41.1 °F 37.4 °F 71% 29.95 in 10.0 mi SE 11.5 mph - N/A   Clear
10:35 PM 46.4 °F 41.1 °F 37.4 °F 71% 29.95 in 10.0 mi SE 11.5 mph - N/A   Scattered Clouds
10:55 PM 46.4 °F 41.5 °F 37.4 °F 71% 29.95 in 10.0 mi SE 10.4 mph - N/A   Mostly Cloudy
11:15 PM 44.6 °F 38.4 °F 37.4 °F 76% 29.95 in 10.0 mi SE 12.7 mph - N/A   Mostly Cloudy
11:35 PM 46.4 °F 41.1 °F 37.4 °F 71% 29.95 in 10.0 mi SE 11.5 mph - N/A   Mostly Cloudy
11:55 PM 44.6 °F 38.8 °F 37.4 °F 76% 29.95 in 10.0 mi SE 11.5 mph - N/A   Mostly Cloudy